User: anonymous   Login
Location: Unspecified
(0.0000°N, 0.0000°E)
Time: 16:33:17
(UTC+02:00)
Language:

CZ-4 R/B - Orbit

View from above orbital plane
View from above orbital plane
View from above satellite
View from above satellite

Ground track
Ground track

The orbit data is extracted from the following two-line orbital elements,

1 28059U 03049C   17204.67346650 +.00000009 +00000-0 +13930-4 0  9990
2 28059 098.5562 091.3384 0050961 135.0976 250.8426 14.52492148728982
Epoch (UTC): 23 July 2017 16:09:47
Eccentricity: 0.0050961
inclination: 98.5562°
perigee height: 681 km
apogee height: 753 km
right ascension of ascending node: 91.3384°
argument of perigee: 135.0976°
revolutions per day: 14.52492148
mean anomaly at epoch: 250.8426°
orbit number at epoch: 72898

The dashed part of the orbit path shows where the satellite is in the earth's shadow,  

DLR